Meteo Giornale » Osservazioni meteo Italia » Catania-Fontanarossa

ore: 06:20 - Osservazioni Meteo Catania-Fontanarossa
Lat. 37° 28' N Lon. 15° 3' E Alt. 11 metri s.l.m.

sereno Europe/Rome

14 °C

Sereno

Temp. 24 Ore

8 °C

16 °C

Ovest/Nord-Ovest

31.5 Km/h

Dew point 4 °C

Umidità 50 %

Visibilità  10 Km

Il sole sorge alle ore 07:04

Il sole tramonta alle ore 16:44

Data e Ora Cielo e Fenomeni T °C DP °C Um. % Pres. hPa Vis. km Vento km/h
Oggi h: 06:20 sereno Sereno 14 4 50 998 10 O/NO 31.5
Oggi h: 05:50 sereno Sereno 13 5 58 998 10 O 13
Oggi h: 05:20 poco_nuvoloso Poco Nuvoloso 14 4 50 998 10 O/NO 24
Oggi h: 04:50 poco_nuvoloso Poco Nuvoloso 13 4 54 997 10 O 20.3
Oggi h: 04:20 poco_nuvoloso Poco Nuvoloso 13 5 58 997 10 O 18.5
Oggi h: 03:50 poco_nuvoloso Poco Nuvoloso 13 6 62 996 10 O 29.6
Oggi h: 03:20 poco_nuvoloso Poco Nuvoloso 12 7 71 996 10 O 27.8
Oggi h: 02:50 nuvoloso Nuvoloso 12 7 71 995 10 O 35.2
Oggi h: 02:20 nuvoloso Nuvoloso 12 7 71 995 10 O 35.2
Oggi h: 01:50 coperto_pioggia Pioggia Debole 12 8 76 996 10 O 29.6
Oggi h: 01:20 coperto_pioggia Pioggia 14 8 67 996 9 NO 33.3
Oggi h: 00:50 poco_nuvoloso Poco Nuvoloso 15 8 62 994 10 O 25.9
Oggi h: 00:20 coperto_pioggia Pioviggine Leggera 16 8 58 994 10 O 38.8
Ieri h: 23:50 nuvoloso Nuvoloso 14 11 82 994 10 O 29.6
Ieri h: 23:20 coperto_pioggia Pioggia Debole 13 12 93 995 10 O/SO 11.1
Ieri h: 22:50 nuvoloso Nuvoloso 12 11 93 995 10 SO 9.3
Ieri h: 22:20 coperto_pioggia Pioggia Debole 12 11 93 995 10 SO 11.1
Ieri h: 21:50 coperto_pioggia Pioggia Debole 12 11 93 996 10 SO 11.1
Ieri h: 21:20 nuvoloso Nuvoloso 11 11 100 997 10 O 13
Ieri h: 20:50 nuvoloso Nuvoloso 12 11 93 997 10 SO 18.5
Ieri h: 20:20 nuvoloso Nuvoloso 13 12 93 998 10 S/SO 16.7
Ieri h: 19:50 nuvoloso Nuvoloso 12 11 93 998 10 O/SO 14.8
Ieri h: 19:20 coperto_pioggia Pioviggine Leggera 12 11 93 999 10 O/SO 11.1
Ieri h: 18:50 coperto_pioggia Pioggia Debole 12 11 93 999 10 O 11.1
Ieri h: 18:20 coperto_pioggia Pioggia Debole 12 11 93 1000 8 O/SO 16.7
Ieri h: 17:50 coperto_pioggia Pioggia 13 12 93 1000 7 O/SO 20.3
Ieri h: 17:20 coperto_pioggia Pioggia 13 11 87 1000 7 O 18.5
Ieri h: 16:50 coperto_pioggia Pioggia Debole 13 11 87 1000 7 O/SO 13
Ieri h: 16:20 coperto_pioggia Pioggia Debole 13 11 87 1001 10 O/SO 11.1
Ieri h: 15:50 coperto_pioggia Pioggia Debole 13 11 87 1001 10 O/SO 11.1
Ieri h: 15:20 coperto_pioggia Pioggia Debole 13 11 87 1002 10 O 13
Ieri h: 14:50 coperto_pioggia Pioggia Debole 13 11 87 1002 10 O 13
Ieri h: 14:20 molto_nuvoloso Molto Nuvoloso 14 10 76 1002 10 O 16.7
Ieri h: 13:50 molto_nuvoloso Molto Nuvoloso 14 10 76 1002 10 O 13
Ieri h: 13:20 coperto_pioggia Pioviggine Leggera 13 10 81 1003 10 O 14.8
Ieri h: 12:50 molto_nuvoloso Molto Nuvoloso 14 10 76 1003 10 O 20.3
Ieri h: 12:20 molto_nuvoloso Molto Nuvoloso 15 9 67 1004 10 O 22.2
Ieri h: 11:50 nuvoloso Nuvoloso 15 9 67 1004 10 O/NO 24
Ieri h: 11:20 nuvoloso Nuvoloso 15 9 67 1005 10 O 20.3
Ieri h: 10:50 nuvoloso Nuvoloso 14 9 71 1006 10 O 18.5
Ieri h: 10:20 nuvoloso Nuvoloso 14 8 67 1006 10 O 20.3
Ieri h: 09:50 nuvoloso Nuvoloso 13 7 66 1007 10 O 18.5
Ieri h: 09:20 nuvoloso Nuvoloso 11 7 76 1007 10 O/SO 13
Ieri h: 08:50 poco_nuvoloso Poco Nuvoloso 10 6 76 1007 10 O 13
Ieri h: 08:20 sereno Sereno 9 6 81 1007 10 O 11.1
Ieri h: 07:50 sereno Sereno 9 6 81 1006 10 O 18.5
Ieri h: 07:20 sereno Sereno 8 5 81 1006 10 O 16.7
Ieri h: 06:50 sereno Sereno 8 5 81 1006 10 O 18.5
Ieri h: 06:20 sereno Sereno 8 5 81 1006 10 O 14.8
Ieri h: 05:50 sereno Sereno 9 5 75 1006 10 O 20.3